sat.trackr.live / text

‹ back to catalog

STARLINK-2113

NORAD 47392 · 2021-005AV

PAYLOAD ACTIVE UNKNOWN

§ Identity

Operator
Country
US
Launch date
2021-01-20
Launch site
AFETR
Launch vehicle
Mass (kg)
RCS (m²)

Purposes: comms

External: N2YO · Heavens-Above · Gunter

§ Orbital elements

Epoch: 2026-05-25T02:08:49.394112Z

Period
91.39 min
Inclination
53.0457°
Eccentricity
0.0002898
Mean motion
15.75676025 rev/d
Perigee alt
340.8 km
Apogee alt
344.7 km
Semi-major
6,720.8 km
B*
8.4908e-4
RAAN
0.2321°
Arg perigee
102.6533°
Mean anomaly
257.4810°
Rev number
29,565

§ Raw data

STARLINK-21131 47392U 21005AV  26145.08946058  .00134176  00000+0  84908-3 0  99942 47392  53.0457   0.2321 0002898 102.6533 257.4810 15.75676025295654

JSON: /api/v1/satellites/47392 · /tle

For live sub-satellite position, see the globe view (requires WebGL).

§ Visibility from observer

Set your observer location to see the next 7 days of passes ≥ 10°. The values pass through the URL so the page stays shareable.

No JS? Fill the form by hand. The geolocation button needs JavaScript.